DELTA 1 DEB, 42079

Orbit data source: Space-Track

DELTA 1 DEB, 42079 is space debris in SSO originally from a launch on Sun, 15 Dec 1968 UTC launched from the Air Force Western Test Range (AFWTR). Debris objects in space refer to the collection of defunct objects orbiting the Earth. Examples of debris include non-operational satellites, rocket bodies, and fragments generated from explosions, collisions, or faulty payload assembly.

Loading next visibility...
Identifier
42079, 1968-114F
Orbit
SSO
Country
Flag of USUS
Related business
Manufacturer
Aerojet
Mission
Spacecraft
Bus & Motor
Unknown
Mass
Unknown
Launch date (UTC)
1968-12-15 (58 years ago)
Launch vehicle
Unknown
Launch site
Air Force Western Test Range (AFWTR)
Object type
Payload
Rocket body
Debris
Shape & HBR
Unknown shape, 0.1 m
Radar Cross Section
Small (<0.1 m²)

Expand to show TLE details & history
Last TLE update: 2 weeks ago

TLE from 2 weeks ago
0 DELTA 1 DEB
1 42079U 68114F   26158.19383706  .00000171  00000-0  16075-2 0  9991
2 42079 102.0261 128.5610 0317640  97.3774 277.1055 12.26255247561215
Epoch: 2026-06-07T04:39Z
TLE epoch observation values (Epoch: 2026-06-07T04:39:07.521Z)
Latitude
10.57007°
Longitude
160.91394°
Altitude
1,543.921 km
Speed
7.106 km/s
True Right ascension
08h 25m 10s
True Declination
10° 30' 52"
Sunlit
Object was in daylight at epoch
Visualization orbit readout
Latitude
Unknown
Longitude
Unknown
Altitude
Unknown
Speed
Unknown
Apparent Right ascension
Unknown
Apparent Declination
Unknown
Sunlit
N/A
Visualization observer readout
Local Sidereal Time
21:47:25
Azimuth
Unknown
Elevation
Unknown
Doppler factor
Unknown
Orbital elements
Apogee altitude
1,815.245 km
Perigee altitude
1,310.76 km
Semi-major axis
7,941.14 km
Eccentricity
0.03176
Inclination
102.0261°
RAAN
128.561°
Arg. of periapsis
97.3774°
True anomaly
273.47817°
Mean anomaly
277.1055°
Eccentric anomaly
275.29332°
Mean motion
3.06704 °/min
Orbital period
117.38 mins
BSTAR
0.0016075
Loading maneuver chart data...
Computing Atmospheric mass density...
Loading historical data...
Loading historical data...
Loading historical data...
Loading historical data...
Loading historical data...
Loading historical data...
Loading historical data...

Documentation

Showing up to 5 results
|